Hourly Data Report for October 03, 2017

All times are specified in Local Standard Time (LST). Add 1 hour to adjust for Daylight Saving Time where and when it is observed.

BELLA COOLA AIRPORT
BRITISH COLUMBIA

52°23'19.000" N
126°35'13.000" W
36.90 m
1060844
71533
VBD

Download Data

Hourly Data (October 2017)
Hourly Data Report for October 3, 2017
Temp Definition
°C
Dew Point Temp Definition
°C
Rel Hum Definition
%
Wind Dir Definition
10's deg

Wind Spd Definition
km/h
Visibility Definition
km
Stn Press Definition
kPa
Hmdx Definition


Wind Chill Definition


Weather Definition


TIME
00:00 2.9 2.2 95 14 1   102.45     LegendNANA
01:00 2.0 1.4 96 0 1   102.48     LegendNANA
02:00 1.8 1.3 97 9 2   102.54     LegendNANA
03:00 1.7 1.2 97 0 1   102.54     LegendNANA
04:00 1.1 0.7 97 13 1   102.54     LegendNANA
05:00 1.2 0.8 97 7 2   102.54     LegendNANA
06:00 0.7 0.4 97 7 2   102.53     LegendNANA
07:00 0.5 0.1 97 24 1   102.55     LegendNANA
08:00 0.6 0.1 96 3 2   102.55     LegendNANA
09:00 2.9 1.9 93 15 3   102.59     LegendNANA
10:00 8.9 2.0 62 17 2   102.53     LegendNANA
11:00 11.6 0.5 46 16 3   102.44     LegendNANA
12:00 13.9 1.1 42 7 3   102.34     LegendNANA
13:00 15.7 -0.5 33 9 2   102.27     LegendNANA
14:00 16.8 0.0 32 24 4   102.19     LegendNANA
15:00 16.0 0.9 36 25 13   102.16     LegendNANA
16:00 14.6 1.7 42 24 8   102.12     LegendNANA
17:00 13.6 2.9 48 24 6   102.10     LegendNANA
18:00 9.0 6.1 82 0 1   102.13     LegendNANA
19:00 6.2 4.9 91 0 1   102.17     LegendNANA
20:00 5.4 4.5 94 8 1   102.18     LegendNANA
21:00 4.1 3.4 95   0   102.19     LegendNANA
22:00 3.3 2.7 96 0 1   102.19     LegendNANA
23:00 3.0 2.5 96 0 1   102.20     LegendNANA

Notes on Data Quality.

Legend

  • E = Estimated
  • M = Missing
  • NA = Not Available
  • ‡ = Partner data that is not subject to review by the National Climate Archives
Date modified: